EW9356 Weather Reports


Display with metric or nautical units.
time (UTC)temp
F
wind
direction
speed
MPH
gust
MPH
rain 1hr
in
rain 24hr
in
rain mn
in
humidity
%
barometer
mb
20260506182511 53 181 20.0 28.0 0.00 0.00 0.00 92 1009.5
20260506182011 53 178 21.0 28.0 0.00 0.00 0.00 92 1009.4
20260506181535 53 175 21.0 26.0 0.00 0.00 0.00 92 1009.3
20260506181015 53 189 22.0 26.0 0.00 0.00 0.00 92 1009.4
20260506180515 54 183 20.0 24.0 0.00 0.00 0.00 92 1009.5
20260506180046 54 177 21.0 28.0 0.00 0.00 0.00 92 1009.5
20260506175513 54 180 20.0 29.0 0.00 0.00 0.00 92 1009.5
20260506175012 54 184 20.0 29.0 0.00 0.00 0.00 92 1010.0
20260506174534 54 186 20.0 29.0 0.00 0.00 0.00 92 1010.0
20260506174012 54 173 21.0 31.0 0.00 0.00 0.00 91 1010.2
20260506173512 54 175 22.0 29.0 0.00 0.00 0.00 91 1010.1
20260506173104 54 187 24.0 32.0 0.00 0.00 0.00 91 1009.9
20260506172511 54 178 27.0 33.0 0.00 0.00 0.00 91 1009.5
20260506172013 54 175 26.0 35.0 0.00 0.00 0.00 91 1009.7
20260506171536 54 171 27.0 35.0 0.00 0.00 0.00 91 1009.6
20260506171012 54 173 25.0 33.0 0.00 0.00 0.00 91 1009.8
20260506170513 54 173 28.0 33.0 0.00 0.00 0.00 91 1009.8
20260506170040 54 160 27.0 34.0 0.00 0.00 0.00 91 1009.7
20260506165514 54 180 25.0 28.0 0.00 0.00 0.00 91 1010.0
20260506165014 54 175 24.0 28.0 0.00 0.00 0.00 91 1010.0
20260506164536 54 171 24.0 31.0 0.00 0.00 0.00 91 1010.2
20260506164014 54 198 24.0 29.0 0.00 0.00 0.00 91 1010.3
20260506163514 54 180 25.0 28.0 0.00 0.00 0.00 91 1010.5
20260506163038 54 180 24.0 32.0 0.00 0.00 0.00 91 1010.5
20260506162512 54 173 24.0 32.0 0.00 0.00 0.00 91 1010.4
20260506162012 54 175 25.0 31.0 0.00 0.00 0.00 91 1010.4
20260506161535 55 169 25.0 31.0 0.00 0.00 0.00 90 1010.6
20260506161013 55 176 25.0 30.0 0.00 0.00 0.00 90 1010.7
20260506160515 55 184 23.0 30.0 0.00 0.00 0.00 90 1010.7
20260506160039 55 165 22.0 30.0 0.00 0.00 0.00 90 1010.9
20260506155514 55 198 23.0 33.0 0.00 0.00 0.00 90 1011.1
20260506155012 55 169 23.0 30.0 0.00 0.00 0.00 91 1011.1
20260506154537 55 193 22.0 29.0 0.00 0.00 0.00 91 1011.2
20260506154016 55 183 23.0 30.0 0.00 0.00 0.00 91 1010.9
20260506153514 54 178 24.0 29.0 0.00 0.00 0.00 91 1010.9
20260506153035 54 182 21.0 25.0 0.00 0.00 0.00 91 1011.0
20260506152512 54 190 21.0 28.0 0.00 0.00 0.00 91 1011.2
20260506152012 54 184 20.0 26.0 0.00 0.00 0.00 91 1011.1
20260506151535 54 188 20.0 25.0 0.00 0.00 0.00 91 1011.2
20260506151013 54 183 20.0 27.0 0.00 0.00 0.00 91 1011.3
20260506150512 54 187 19.0 25.0 0.00 0.00 0.00 90 1011.5
20260506150032 54 174 20.0 27.0 0.00 0.00 0.00 90 1011.5
20260506145512 55 183 21.0 27.0 0.00 0.00 0.00 90 1011.5
20260506145013 55 175 20.0 26.0 0.00 0.00 0.00 90 1011.6
20260506144540 55 175 20.0 25.0 0.00 0.00 0.00 90 1011.4
20260506144012 55 187 20.0 26.0 0.00 0.00 0.00 90 1011.4
20260506143513 55 197 21.0 26.0 0.00 0.00 0.00 90 1011.2
20260506143037 55 202 21.0 27.0 0.00 0.00 0.00 91 1011.1
20260506142518 55 192 20.0 27.0 0.00 0.00 0.00 91 1011.2
20260506142014 55 192 20.0 26.0 0.00 0.00 0.00 91 1011.4
20260506141537 54 179 20.0 27.0 0.00 0.00 0.00 91 1011.2
20260506141016 54 202 20.0 26.0 0.00 0.00 0.00 91 1011.4
20260506140515 54 192 19.0 26.0 0.00 0.00 0.00 91 1011.4
20260506140035 54 206 20.0 26.0 0.00 0.00 0.00 91 1011.4
20260506135513 54 196 21.0 26.0 0.00 0.00 0.00 91 1011.4
20260506135013 54 194 19.0 25.0 0.00 0.00 0.00 91 1011.5
20260506134535 54 190 19.0 24.0 0.00 0.00 0.00 91 1011.3
20260506134012 54 191 19.0 25.0 0.00 0.00 0.00 92 1011.5
20260506133518 54 185 18.0 24.0 0.00 0.00 0.00 92 1011.3
20260506133033 54 192 18.0 24.0 0.00 0.00 0.00 92 1011.3
20260506132522 54 188 18.0 24.0 0.00 0.00 0.00 91 1011.2
20260506132012 54 194 20.0 24.0 0.00 0.00 0.00 91 1011.2
20260506131545 54 190 18.0 23.0 0.00 0.00 0.00 91 1011.3
20260506131014 54 190 19.0 25.0 0.00 0.00 0.00 91 1011.4
20260506130514 54 199 20.0 25.0 0.00 0.00 0.00 91 1011.5
20260506130049 54 184 20.0 27.0 0.00 0.00 0.00 91 1011.3
20260506125513 54 186 21.0 27.0 0.00 0.00 0.00 91 1011.5
20260506125013 54 190 21.0 29.0 0.00 0.00 0.00 91 1011.4
20260506124535 54 178 21.0 28.0 0.00 0.00 0.00 91 1011.5
20260506124014 54 182 21.0 28.0 0.00 0.00 0.00 91 1011.6
20260506123515 54 192 22.0 32.0 0.00 0.00 0.00 91 1011.3
20260506123043 54 180 23.0 32.0 0.00 0.00 0.00 91 1011.5
20260506122514 54 173 23.0 29.0 0.00 0.00 0.00 91 1011.4
20260506122013 54 184 23.0 30.0 0.00 0.00 0.00 91 1011.4
20260506121539 54 184 23.0 30.0 0.00 0.00 0.00 91 1011.4
20260506121016 54 181 23.0 32.0 0.00 0.00 0.00 92 1011.4
20260506120515 54 198 22.0 28.0 0.00 0.00 0.00 92 1011.6
20260506120042 54 196 19.0 25.0 0.00 0.00 0.00 92 1011.7
20260506115516 54 196 18.0 23.0 0.00 0.00 0.00 92 1011.5
20260506115016 53 192 14.0 21.0 0.00 0.00 0.00 92 1011.9
20260506114542 53 224 13.0 19.0 0.00 0.00 0.00 92 1011.9
20260506114014 53 244 14.0 21.0 0.00 0.00 0.00 93 1011.7
20260506113514 53 212 16.0 22.0 0.00 0.00 0.00 93 1011.9
20260506113051 53 195 17.0 25.0 0.00 0.00 0.00 92 1011.7
20260506112514 53 212 17.0 25.0 0.00 0.00 0.00 92 1011.7
20260506112015 53 194 16.0 21.0 0.00 0.00 0.00 92 1011.6
20260506111543 53 206 15.0 19.0 0.00 0.00 0.00 92 1011.8
20260506111012 53 223 14.0 19.0 0.00 0.00 0.00 92 1011.8
20260506110514 53 197 15.0 19.0 0.00 0.00 0.00 92 1011.7
20260506110055 53 200 15.0 20.0 0.00 0.00 0.00 93 1011.6
20260506105514 53 185 15.0 20.0 0.00 0.00 0.00 93 1011.5
20260506105017 53 218 15.0 22.0 0.00 0.00 0.00 93 1011.8
20260506104551 53 207 17.0 24.0 0.00 0.00 0.00 93 1011.8
20260506104013 53 197 16.0 23.0 0.00 0.00 0.00 93 1011.8
20260506103514 53 194 19.0 25.0 0.00 0.00 0.00 93 1011.7
20260506103050 53 197 19.0 25.0 0.00 0.00 0.00 94 1011.4
20260506102515 53 205 18.0 22.0 0.00 0.00 0.00 94 1011.6
20260506102015 53 186 17.0 21.0 0.00 0.00 0.00 94 1011.5
20260506101553 53 212 17.0 21.0 0.00 0.00 0.00 94 1011.5
20260506101013 53 206 14.0 19.0 0.00 0.00 0.00 94 1011.4
20260506100515 53 209 13.0 18.0 0.00 0.00 0.00 94 1011.6
20260506100100 52 207 10.0 16.0 0.00 0.00 0.00 94 1011.7
20260506095513 52 205 10.0 15.0 0.00 0.00 0.00 94 1011.6
20260506095017 52 195 10.0 14.0 0.00 0.00 0.00 94 1011.5
20260506094538 52 221 10.0 14.0 0.00 0.00 0.00 94 1011.6
20260506094017 52 209 8.0 11.0 0.00 0.00 0.00 93 1011.7
20260506093513 53 217 7.0 12.0 0.00 0.00 0.00 94 1011.8
20260506093046 53 256 8.0 11.0 0.00 0.00 0.00 94 1011.9
20260506092512 53 243 9.0 11.0 0.00 0.00 0.00 94 1011.8
20260506092016 53 252 8.0 11.0 0.00 0.00 0.00 94 1011.9
20260506091542 53 249 7.0 10.0 0.00 0.00 0.00 94 1011.9
20260506091015 53 242 8.0 12.0 0.00 0.00 0.00 94 1011.9
20260506090514 53 254 7.0 12.0 0.00 0.00 0.00 94 1011.9
20260506090046 53 254 7.0 13.0 0.00 0.00 0.00 94 1011.9
20260506085513 54 227 10.0 14.0 0.00 0.00 0.00 94 1012.1
20260506085016 54 239 10.0 14.0 0.00 0.00 0.00 93 1012.3
20260506084605 54 232 9.0 15.0 0.00 0.00 0.00 93 1012.2
20260506084016 54 216 11.0 19.0 0.00 0.00 0.00 93 1012.4
20260506083515 54 206 15.0 25.0 0.00 0.00 0.00 93 1012.3
20260506083046 54 188 18.0 24.0 0.00 0.00 0.00 93 1012.3
20260506082514 54 189 20.0 30.0 0.00 0.00 0.00 93 1011.8
20260506082014 54 201 22.0 30.0 0.00 0.00 0.00 94 1011.8
20260506081550 54 173 20.0 28.0 0.00 0.00 0.00 94 1012.1
20260506081015 54 178 21.0 28.0 0.00 0.00 0.00 94 1012.0
20260506080514 54 208 19.0 26.0 0.00 0.00 0.00 94 1012.0
20260506073515 54 264 9.0 13.0 0.00 0.00 0.00 94 1012.4
20260506073046 53 240 9.0 13.0 0.00 0.00 0.00 94 1012.3
20260506072515 53 251 9.0 15.0 0.00 0.00 0.00 94 1012.3
20260506072015 53 238 9.0 15.0 0.00 0.00 0.00 94 1012.3
20260506071539 53 253 11.0 19.0 0.00 0.00 0.00 94 1012.2
20260506071018 53 256 13.0 19.0 0.00 0.00 0.00 93 1012.3
20260506070516 53 214 15.0 23.0 0.00 0.00 0.00 93 1012.1
20260506062514 53 197 16.0 22.0 0.00 0.00 0.00 94 1012.0
20260506062013 53 199 16.0 22.0 0.00 0.00 0.00 94 1012.2
20260506061541 53 209 16.0 21.0 0.00 0.00 0.00 94 1012.0
20260506061017 53 214 16.0 20.0 0.00 0.00 0.00 93 1011.9
20260506060517 53 211 14.0 20.0 0.00 0.00 0.00 93 1012.3
20260506051220 54 231 11.0 16.0 0.00 0.00 0.00 92 1012.9
20260506050720 54 232 10.0 15.0 0.00 0.00 0.00 92 1012.9
20260506045014 55 244 14.0 18.0 0.00 0.00 0.00 92 1013.2
20260506044615 55 234 15.0 19.0 0.00 0.00 0.00 92 1013.0
20260506044016 54 226 15.0 19.0 0.00 0.00 0.00 92 1012.8
20260506043511 54 236 16.0 20.0 0.00 0.00 0.00 92 1012.9
20260506043035 54 231 16.0 19.0 0.00 0.00 0.00 92 1012.9
20260506042514 55 225 15.0 19.0 0.00 0.00 0.00 92 1013.0
20260506042016 55 230 16.0 18.0 0.00 0.00 0.00 92 1012.9
20260506041536 55 232 16.0 21.0 0.00 0.00 0.00 92 1013.1
20260506041021 54 221 17.0 21.0 0.00 0.00 0.00 92 1012.8
20260506040511 54 225 16.0 21.0 0.00 0.00 0.00 92 1012.9
20260506040042 54 198 16.0 23.0 0.00 0.00 0.00 92 1013.0
20260506035514 54 217 17.0 20.0 0.00 0.00 0.00 92 1012.6
20260506035011 54 241 17.0 22.0 0.00 0.00 0.00 92 1012.8
20260506034601 54 223 18.0 22.0 0.00 0.00 0.00 91 1012.5
20260506034014 55 235 18.0 20.0 0.00 0.00 0.00 91 1012.9
20260506033515 55 230 18.0 23.0 0.00 0.00 0.00 91 1012.8
20260506033039 55 229 18.0 23.0 0.00 0.00 0.00 91 1013.0
20260506032513 55 242 16.0 20.0 0.00 0.00 0.00 91 1013.0
20260506032021 55 248 16.0 20.0 0.00 0.00 0.00 91 1012.9
20260506031544 55 234 15.0 18.0 0.00 0.00 0.00 91 1012.8
20260506031015 55 239 14.0 18.0 0.00 0.00 0.00 91 1012.9
20260506030512 55 242 14.0 18.0 0.00 0.00 0.00 91 1012.9
20260506030042 55 261 12.0 17.0 0.00 0.00 0.00 91 1013.0
20260506025513 55 252 13.0 17.0 0.00 0.00 0.00 91 1012.7
20260506025013 55 251 13.0 18.0 0.00 0.00 0.00 91 1012.5
20260506024544 54 238 13.0 18.0 0.00 0.00 0.00 92 1012.7
20260506024016 54 252 13.0 19.0 0.00 0.00 0.00 92 1012.8
20260506023516 54 232 14.0 20.0 0.00 0.00 0.00 92 1012.6
20260506023100 54 234 15.0 20.0 0.00 0.00 0.00 91 1012.9
20260506022515 54 240 16.0 21.0 0.00 0.00 0.00 91 1012.7
20260506022013 54 231 18.0 23.0 0.00 0.00 0.00 91 1012.5
20260506021537 54 231 18.0 25.0 0.00 0.00 0.00 90 1012.4
20260506021014 54 233 17.0 25.0 0.00 0.00 0.00 90 1012.3
20260506020514 54 211 19.0 25.0 0.00 0.00 0.00 90 1012.2
20260506020045 54 209 20.0 26.0 0.00 0.00 0.00 90 1012.2
20260506015519 54 197 20.0 26.0 0.00 0.00 0.00 90 1012.0
20260506015014 54 200 20.0 27.0 0.00 0.00 0.00 89 1012.3
20260506014543 54 198 20.0 28.0 0.00 0.00 0.00 89 1012.1
20260506014018 54 200 23.0 27.0 0.00 0.00 0.00 89 1011.9
20260506013513 54 216 22.0 27.0 0.00 0.00 0.00 89 1011.7
20260506013042 54 204 23.0 29.0 0.00 0.00 0.00 89 1011.7
20260506012513 54 212 21.0 29.0 0.00 0.00 0.00 88 1011.6
20260506012012 54 192 24.0 30.0 0.00 0.00 0.00 88 1011.4
20260506011538 54 201 25.0 30.0 0.00 0.00 0.00 88 1011.1
20260506011013 54 203 24.0 31.0 0.00 0.00 0.00 88 1011.5
20260506010517 54 202 25.0 31.0 0.00 0.00 0.00 87 1011.1
20260506010042 54 198 25.0 30.0 0.00 0.00 0.00 87 1011.1
20260506005515 55 196 25.0 32.0 0.00 0.00 0.00 87 1011.1
20260506005013 55 192 25.0 32.0 0.00 0.00 0.00 87 1011.0
20260506004557 55 211 26.0 30.0 0.00 0.00 0.00 87 1010.8
20260506004015 55 192 25.0 30.0 0.00 0.00 0.00 87 1010.9
20260506003514 54 201 24.0 31.0 0.00 0.00 0.00 87 1011.0
20260506003051 54 205 25.0 32.0 0.00 0.00 0.00 87 1010.9
20260506002514 54 217 24.0 31.0 0.00 0.00 0.00 86 1010.9
20260506002013 54 204 24.0 30.0 0.00 0.00 0.00 86 1010.7
20260506001540 54 202 23.0 31.0 0.00 0.00 0.00 86 1011.0
20260506001015 55 197 24.0 31.0 0.00 0.00 0.00 86 1010.9
20260506000515 55 192 25.0 32.0 0.00 0.00 0.00 86 1010.4
20260506000037 55 196 26.0 33.0 0.00 0.00 0.00 85 1010.7
20260505235514 55 197 26.0 33.0 0.00 0.00 0.00 86 1010.4
20260505235014 55 193 26.0 32.0 0.00 0.00 0.00 86 1010.7
20260505234559 55 190 25.0 32.0 0.00 0.00 0.00 86 1010.4
20260505234022 55 196 25.0 32.0 0.00 0.00 0.00 86 1010.1
20260505233520 55 199 24.0 31.0 0.00 0.00 0.00 86 1010.6
20260505233038 55 190 25.0 31.0 0.00 0.00 0.00 86 1010.2
20260505232514 55 189 25.0 32.0 0.00 0.00 0.00 85 1010.2
20260505232015 55 207 26.0 31.0 0.00 0.00 0.00 86 1010.0
20260505231542 55 182 25.0 31.0 0.00 0.00 0.00 86 1010.0
20260505231015 55 182 24.0 32.0 0.00 0.00 0.00 86 1010.1
20260505230516 55 181 26.0 32.0 0.00 0.00 0.00 86 1010.1
20260505230048 55 199 26.0 32.0 0.00 0.00 0.00 86 1010.1
20260505225521 55 200 25.0 31.0 0.00 0.00 0.00 86 1010.1
20260505225019 55 177 27.0 37.0 0.00 0.00 0.00 87 1010.2
20260505224540 55 184 28.0 37.0 0.00 0.00 0.00 87 1009.9
20260505224014 55 197 27.0 33.0 0.00 0.00 0.00 87 1009.8
20260505223513 55 175 26.0 33.0 0.00 0.00 0.00 87 1009.6
20260505223042 55 192 27.0 33.0 0.00 0.00 0.00 87 1009.8
20260505222517 55 200 25.0 33.0 0.00 0.00 0.00 87 1009.8
20260505222016 55 192 26.0 33.0 0.00 0.00 0.00 87 1009.7
20260505221543 55 203 26.0 35.0 0.00 0.00 0.00 87 1009.8
20260505221018 55 186 27.0 35.0 0.00 0.00 0.00 87 1009.6
20260505220518 55 184 25.0 32.0 0.00 0.00 0.00 87 1009.6
20260505220055 55 192 27.0 32.0 0.00 0.00 0.00 87 1009.5
20260505215516 55 180 26.0 32.0 0.00 0.00 0.00 87 1009.6
20260505215015 55 179 25.0 35.0 0.00 0.00 0.00 87 1009.5
20260505214540 55 202 25.0 31.0 0.00 0.00 0.00 87 1009.7
20260505214014 55 173 25.0 31.0 0.00 0.00 0.00 87 1009.6
20260505213513 55 174 27.0 32.0 0.00 0.00 0.00 88 1009.5
20260505213037 55 170 25.0 33.0 0.00 0.00 0.00 88 1009.5
20260505212517 55 196 24.0 31.0 0.00 0.00 0.00 87 1009.5
20260505212018 55 180 25.0 35.0 0.00 0.00 0.00 87 1009.4
20260505211547 55 199 26.0 31.0 0.00 0.00 0.00 88 1009.4
20260505211016 55 200 25.0 31.0 0.00 0.00 0.00 88 1009.4
20260505210519 55 190 24.0 31.0 0.00 0.00 0.00 88 1009.5
20260505210039 54 186 24.0 32.0 0.00 0.00 0.00 88 1009.7
20260505205515 54 194 23.0 32.0 0.00 0.00 0.00 88 1009.6
20260505205014 54 188 21.0 33.0 0.00 0.00 0.00 88 1009.7
20260505204536 54 149 21.0 30.0 0.00 0.00 0.00 88 1009.6
20260505204013 54 151 20.0 26.0 0.00 0.00 0.00 88 1009.8
20260505203515 54 198 19.0 28.0 0.00 0.00 0.00 89 1009.8
20260505203043 54 177 18.0 27.0 0.00 0.00 0.00 88 1009.7
20260505202514 54 178 19.0 25.0 0.00 0.00 0.00 89 1009.8
20260505202014 54 186 16.0 21.0 0.00 0.00 0.00 89 1009.9
20260505201537 54 204 14.0 17.0 0.00 0.00 0.00 89 1010.1
20260505201013 54 205 12.0 16.0 0.00 0.00 0.00 89 1010.2
20260505200515 54 196 11.0 13.0 0.00 0.00 0.00 89 1010.4
20260505200044 54 202 10.0 16.0 0.00 0.00 0.00 90 1010.7
20260505195515 53 215 11.0 13.0 0.00 0.00 0.00 90 1010.7
20260505195016 53 206 11.0 17.0 0.00 0.00 0.00 89 1010.5
20260505194546 54 175 12.0 18.0 0.00 0.00 0.00 89 1010.7
20260505194016 54 195 14.0 19.0 0.00 0.00 0.00 89 1010.7
20260505193516 54 202 15.0 19.0 0.00 0.00 0.00 89 1010.8
20260505193057 54 186 16.0 19.0 0.00 0.00 0.00 89 1010.9
20260505192517 54 201 15.0 19.0 0.00 0.00 0.00 89 1011.1
20260505192014 54 227 11.0 16.0 0.00 0.00 0.00 90 1011.2
20260505191556 54 214 12.0 15.0 0.00 0.00 0.00 90 1011.2
20260505191018 53 211 12.0 16.0 0.00 0.00 0.00 91 1011.5
20260505190518 53 218 14.0 17.0 0.00 0.00 0.00 91 1011.5
20260505190048 53 195 15.0 18.0 0.00 0.00 0.00 91 1011.3
20260505185518 53 199 14.0 18.0 0.00 0.00 0.00 91 1011.3
20260505185017 53 193 14.0 17.0 0.00 0.00 0.00 91 1011.2
20260505184543 53 207 13.0 15.0 0.00 0.00 0.00 91 1011.2
20260505184019 53 207 12.0 16.0 0.00 0.00 0.00 90 1011.2
20260505183519 53 204 13.0 16.0 0.00 0.00 0.00 90 1011.5
20260505183039 53 209 12.0 14.0 0.00 0.00 0.00 90 1011.5